Cordova, SC

4:19 PM EDT on July 23, 2016 (GMT -0400)
Orangeburg Municipal

Weather History for KOGB - July, 2014

Change the Weather History Date:

Saturday, July 5, 2014

  Actual Average Record
Temperature  
Mean Temperature 78 °F 81 °F  
Max Temperature 85 °F 92 °F 99 °F (1982)
Min Temperature 70 °F 70 °F 61 °F (1976)
Degree Days  
Heating Degree Days 0 0  
Month to date heating degree days 0 0  
Since 1 June heating degree days 0 1  
Since 1 July heating degree days 0 0  
Cooling Degree Days 13 16  
Month to date cooling degree days 82 80  
Year to date cooling degree days 879 781  
Since 1 June cooling degree days 524 478  
Growing Degree Days 27 (Base 50)    
Moisture  
Dew Point 60 °F    
Average Humidity 57    
Maximum Humidity 73    
Minimum Humidity 45    
Precipitation  
Precipitation 0.00 in 0.18 in 3.73 in (1980)
Month to date precipitation 0.23 0.94  
Year to date precipitation 25.97 23.68  
Sea Level Pressure  
Sea Level Pressure 30.18 in    
Wind  
Wind Speed 8 mph (ENE)    
Max Wind Speed 16 mph    
Max Gust Speed 23 mph    
Visibility 10 miles    
Events      
T = Trace of Precipitation, MM = Missing Value Source: NWS Daily Summary

Daily Weather History Graph

Daily Weather History Graph

Search for Another Location

Airport or City:

Trip Planner

Search our weather history database for the weather conditions in past years. The results will help you decide how hot, cold, wet, or windy it might be!

Date:

Astronomy

Jul. 05, 2014 Rise Set
Actual Time 6:19 AM EDT 8:36 PM EDT
Civil Twilight 5:50 AM EDT 9:05 PM EDT
Nautical Twilight 5:15 AM EDT 9:40 PM EDT
Astronomical Twilight 4:36 AM EDT 10:18 PM EDT
Moon 1:47 PM EDT (7/5) 12:51 AM EDT (7/5)
Length of Visible Light 15h 15m
Length of Day
14h 17m
First Quarter, 52% of the Moon is Illuminated
Jul 5
First Quarter
Jul 12
Full
Jul 18
Last Quarter
Jul 26
New
Aug 3
First Quarter

Hourly Weather History & Observations

Time (EDT) Temp. Heat Index Dew Point Humidity Pressure Visibility Wind Dir Wind Speed Gust Speed Precip Events Conditions
12:53 AM 75.0 °F - 64.0 °F 69% 30.12 in 10.0 mi NE 3.5 mph - N/A   Clear
1:53 AM 75.0 °F - 63.0 °F 66% 30.12 in 10.0 mi North 4.6 mph - N/A   Scattered Clouds
2:53 AM 75.9 °F - 57.9 °F 54% 30.12 in 10.0 mi NNE 8.1 mph - N/A   Overcast
3:53 AM 75.0 °F - 55.9 °F 51% 30.13 in 10.0 mi NNE 9.2 mph - N/A   Overcast
4:53 AM 73.0 °F - 55.0 °F 53% 30.14 in 10.0 mi NNE 9.2 mph - N/A   Mostly Cloudy
5:53 AM 71.1 °F - 54.0 °F 55% 30.15 in 10.0 mi NE 9.2 mph - N/A   Clear
6:53 AM 70.0 °F - 54.0 °F 57% 30.17 in 10.0 mi NE 8.1 mph - N/A   Clear
7:53 AM 72.0 °F - 55.9 °F 57% 30.19 in 10.0 mi NE 10.4 mph 18.4 mph N/A   Clear
8:53 AM 73.9 °F - 57.9 °F 57% 30.20 in 10.0 mi ENE 10.4 mph - N/A   Partly Cloudy
9:53 AM 77.0 °F - 57.0 °F 50% 30.21 in 10.0 mi ENE 11.5 mph - N/A   Clear
10:53 AM 79.0 °F - 57.0 °F 47% 30.22 in 10.0 mi NE 17.3 mph 23.0 mph N/A   Clear
11:53 AM 80.1 °F 80.4 °F 57.0 °F 45% 30.22 in 10.0 mi ENE 12.7 mph 21.9 mph N/A   Clear
12:53 PM 80.1 °F 80.6 °F 57.9 °F 47% 30.22 in 10.0 mi East 9.2 mph - N/A   Mostly Cloudy
1:53 PM 82.0 °F 82.1 °F 59.0 °F 45% 30.20 in 10.0 mi East 10.4 mph - N/A   Mostly Cloudy
2:53 PM 82.9 °F 83.2 °F 60.1 °F 46% 30.18 in 10.0 mi ENE 8.1 mph - N/A   Mostly Cloudy
3:53 PM 82.9 °F 83.7 °F 62.1 °F 49% 30.19 in 10.0 mi East 8.1 mph - N/A   Partly Cloudy
4:53 PM 84.0 °F 84.9 °F 63.0 °F 49% 30.18 in 10.0 mi ENE 8.1 mph - N/A   Scattered Clouds
5:53 PM 82.9 °F 84.4 °F 64.0 °F 53% 30.17 in 10.0 mi East 9.2 mph - N/A   Mostly Cloudy
6:53 PM 81.0 °F 83.0 °F 66.0 °F 60% 30.17 in 10.0 mi East 9.2 mph - N/A   Mostly Cloudy
7:53 PM 79.0 °F - 66.0 °F 64% 30.19 in 10.0 mi East 5.8 mph - N/A   Clear
8:53 PM 77.0 °F - 64.9 °F 66% 30.19 in 10.0 mi East 4.6 mph - N/A   Clear
9:53 PM 75.0 °F - 64.9 °F 71% 30.19 in 10.0 mi Calm Calm - N/A   Clear
10:53 PM 73.9 °F - 64.9 °F 73% 30.18 in 10.0 mi Calm Calm - N/A   Clear
11:53 PM 73.0 °F - 64.9 °F 76% 30.17 in 10.0 mi ENE 3.5 mph - N/A   Clear